Regional Weather Roundup
Issued by NWS

Home | Current Version | Previous Version | Text Only | Print | Product List | Glossary On
Versions: 1 2 3 4 5 6 7 8 9 10 11 12 13 14 15 16 17 18 19 20 21 22 23 24 25 26 27 28 29 30 31 32 33 34 35 36 37 38 39 40 41 42 43 44 45 46 47 48 49 50
509
ASUS46 KSEW 290110
RWRWA

WASHINGTON REGIONAL WEATHER ROUNDUP
NATIONAL WEATHER SERVICE SEATTLE WA
600 PM PDT THU APR 28 2016

NOTE:"FAIR" INDICATES FEW OR NO CLOUDS BELOW 12,000 FEET WITH NO
SIGNIFICANT WEATHER AND/OR OBSTRUCTIONS TO VISIBILITY.

WAZ505-507>509-290200-
SEATTLE, TACOMA, EVERETT, AND VICINITY

CITY           SKY/WX    TMP DP  RH WIND       PRES   REMARKS
EVERETT        CLOUDY    54  45  71 N7        30.09S
BOEING FIELD   CLOUDY    61  43  51 S6        30.07S
RENTON         CLOUDY    60  46  59 VRB3      30.07S
SEATAC AIRPORT CLOUDY    60  45  57 W8        30.08F
JBLM-MCCHORD   CLOUDY    59  46  63 W8        30.08S
PUYALLUP       CLOUDY    57  46  67 CALM      30.09R
BREMERTON      CLOUDY    61  46  59 S7        30.09S
JBLM-FT LEWIS  CLOUDY    58  45  61 SW6       30.08S
TACOMA NARROWS PTSUNNY   59  44  57 SW6       30.08F
$$

WAZ001-503-506-510-514-515-290200-
NORTH INTERIOR

CITY           SKY/WX    TMP DP  RH WIND       PRES   REMARKS
BELLINGHAM     CLOUDY    59  44  57 S10       30.06S
FRIDAY HARBOR  CLOUDY    57  44  62 SW7       30.08S
EASTSOUND      PTSUNNY   61  46  59 S5        30.04S
PORT ANGELES   CLOUDY    51  45  79 NW14G20   30.11S
EDIZ HOOK      CLOUDY    54  46  76 W17       30.11S
PORT TOWNSEND  CLOUDY    54  46  76 W8G14     30.10S
NAS WHIDBEY    CLOUDY    55  46  71 W14       30.13S
ARLINGTON      CLOUDY    55  43  62 NW8       30.10S
BURLINGTON     MOSUNNY   59  46  63 VRB6G13   30.09S
$$

WAZ020-022-039-040-504-511-512-290200-
SOUTHWEST INTERIOR

CITY           SKY/WX    TMP DP  RH WIND       PRES   REMARKS
SHELTON        PTSUNNY   61  42  49 SW15G24   30.06S
OLYMPIA        CLOUDY    60  43  53 W5        30.09S
CHEHALIS       CLOUDY    59  46  63 VRB5      30.10S
KELSO          CLOUDY    57  45  62 NW7       30.13S
VANCOUVER      CLOUDY    61  42  49 VRB3      30.09S
SCAPPOOSE, OR  LGT RAIN  56  48  74 VRB6      30.10S
PORTLAND, OR   CLOUDY    60  43  53 N3        30.10S
$$

WAZ021-516-517-290200-
WASHINGTON COAST

CITY           SKY/WX    TMP DP  RH WIND       PRES   REMARKS
FORKS          NOT AVBL
HOQUIAM          N/A    N/A N/A N/A MISG      30.13R
ASTORIA, OR    PTSUNNY   57  47  69 NW13      30.14R
$$

WAZ019-023-024-040-518-519-290200-
CASCADE MOUNTAINS AND COLUMBIA GORGE

CITY           SKY/WX    TMP DP  RH WIND       PRES   REMARKS
STAMPEDE PASS  CLOUDY    40  36  86 VRB5      30.05F
TROUTDALE, OR  CLOUDY    60  45  57 SE3       30.09F
THE DALLES, OR SUNNY     65  40  39 NW14G26   29.99S
$$

WAZ026-027-041>044-520-521-290200-
EAST SLOPES

CITY           SKY/WX    TMP DP  RH WIND       PRES   REMARKS
OMAK           MOSUNNY   66  40  38 NW7       29.89S
WENATCHEE      MOSUNNY   71  36  27 W14       29.89S
ELLENSBURG     CLOUDY    59  40  49 NW29G44   29.94S
YAKIMA         PTSUNNY   70  42  36 NW18      29.92R
$$

WAZ028-034-035-290200-
COLUMBIA BASIN

CITY           SKY/WX    TMP DP  RH WIND       PRES   REMARKS
EPHRATA        CLOUDY    67  41  38 NW9       29.90S
MOSES LAKE     SUNNY     69  41  36 S7        29.90S
PASCO          SUNNY     73  39  29 SW5       29.91S
HERMISTON, OR  SUNNY     71  38  29 VRB6      29.91S
$$

WAZ036>038-290200-
NORTHEAST WASHINGTON

CITY           SKY/WX    TMP DP  RH WIND       PRES   REMARKS
SPOKANE GEIGER PTSUNNY   64  32  30 E9        29.93S
SPOKANE FELTS  PTSUNNY   65  33  30 E9        29.93S
FAIRCHILD AFB  MOSUNNY   61  34  36 NE9       29.92S
COEURDALENE,ID PTSUNNY   61  34  36 N12       29.92S
DEER PARK      PTSUNNY   64  33  31 NE13      29.93F
$$

WAZ029>033-290200-
SOUTHEAST WASHINGTON

CITY           SKY/WX    TMP DP  RH WIND       PRES   REMARKS
PULLMAN        CLOUDY    56  42  59 SE5       29.95S
LEWISTON, ID   CLOUDY    59  43  55 CALM      29.93S
WALLA WALLA    MOSUNNY   65  40  39 SW6       29.92F
PENDLETON, OR  SUNNY     66  36  32 W9        29.93S
$$




USA.gov is the U.S. government's official web portal to all federal, state and local government web resources and services.